Cloud_Cover
8 100 72 0 0 0 0 0 0 0 0 0 0 0 0 0 0 3 2 2 18 52 83 100 100 28 5 6 0 3 15 30 2
0 0 0 0 0 0 0 0 0 0 0 0 0 0 0 0 0 3 3 0 0 0 0 4 5 36 11 2 0 0 4 2 0
1 0 0 0 0 0 0 0 0 0 5 1 0 0 0 0 0 0 0 5 0 0 0 0 0 11 2 5 5 27 4 4 5
79 1 0 0 0 0 0 0 0 0 0 0 0 0 0 0 0 0 0 0 0 0 0 0 0 0 3 1 2 4 5 5 1
13 0 0 0 0 0 0 0 0 0 0 0 0 0 0 4 2 2 0 0 0 0 0 0 0 11 5 4 11 18 0 0 0
0 0 0 0 0 0 0 0 0 0 0 0 0 0 2 5 5 5 8 52 85 95 60 8 1 6 32 14 98 79 17 3 0
0 0 0 2 62 0 0 0 0 0 2 14 1 0 26 8 3 62 63 61 45 60 100 73 61 89 86 53 20 51 49 30 5
0 0 0 0 0 0 0 0 0 0 0 0 0 24 30 81 100 100 98 98 100 100 100 100 100 100 100 100 83 80 65 74 97
0 0 0 0 0 0 0 0 0 0 0 0 0 1 29 28 17 24 58 100 100 96 100 100 100 100 100 100 100 100 100 19 100
0 0 0 0 0 0 0 0 0 19 31 60 19 34 53 52 77 71 60 75 100 100 100 100 100 100 100 100 100 100 100 100 94
0 0 0 0 0 0 3 18 34 48 100 72 31 81 61 45 24 20 14 32 43 100 100 98 81 67 100 95 76 29 66 100 100
0 0 0 0 0 0 4 16 97 100 100 100 80 19 13 2 0 0 0 0 0 2 9 27 31 74 60 50 63 32 73 100 100
0 0 0 0 0 0 6 8 4 7 46 30 56 1 2 0 0 0 6 0 0 0 7 11 18 7 17 9 17 51 87 100 100
0 0 0 0 0 10 62 20 1 0 10 86 40 98 8 0 0 0 0 0 0 42 22 20 86 100 100 100 98 99 100 100 100
0 0 0 0 0 4 2 0 0 84 6 96 12 73 17 22 0 9 0 0 0 0 1 54 73 82 89 99 99 100 100 100 100
0 0 0 0 0 0 0 0 0 36 1 47 14 1 0 0 0 0 0 0 0 0 0 2 97 100 100 100 99 100 98 47 96
0 0 0 0 0 0 2 1 0 0 1 0 2 6 26 0 0 0 0 0 0 0 0 0 0 12 54 31 30 56 66 49 42
0 0 0 0 0 0 14 0 6 62 27 0 43 22 6 0 0 0 0 0 0 0 1 23 3 8 3 4 4 8 61 89 100
0 0 0 0 0 9 2 9 10 15 12 29 46 26 0 6 86 67 0 0 0 86 36 0 0 6 23 14 53 93 100 100 100
0 0 0 0 5 0 0 0 6 0 31 0 1 56 38 0 2 0 0 0 10 1 33 100 98 17 0 40 0 0 4 76 99